Regional Weather Roundup
Issued by NWS Sterling, VA

Home | Current Version | Previous Version | Text Only | Print | Product List | Glossary Off
Versions: 1 2 3 4 5 6 7 8 9 10 11 12 13 14 15 16 17 18 19 20 21 22 23 24 25 26 27

000
ASUS41 KLWX 230510
RWRLWX

REGIONAL WEATHER ROUNDUP
NATIONAL WEATHER SERVICE BALTIMORE MD/WASHINGTON DC
100 AM EDT WED APR 23 2014

Note: "FAIR" indicates few or no clouds below 12,000 feet
with no significant weather and/or obstructions to visibility.
 TC=TEMPERATURE CELSIUS

 * =Non NWS site. Station does not report precipitation (e.g. rain,
    snow, etc.), thunder, or fog.

DCZ001-MDZ009-015-VAZ040>042-051-053>054-230600-
WASHINGTON METRO

CITY           SKY/WX    TMP DP  RH WIND       PRES   REMARKS
WASHINGTON NAT PTCLDY    60  44  55 NW17G31   29.68R
DULLES         MOCLDY    54  40  59 NW18G26   29.70R
ANDREWS AFB    CLEAR     58  46  63 NW18G26   29.66R
FT BELVOIR     MOCLDY    59  49  68 NW13G23   29.67R
QUANTICO       PTCLDY    60  46  59 N14       29.68R
COLLEGE PARK*  CLEAR     59  45  58 NW9G22    29.67R
LEESBURG*      PTCLDY    54  41  62 N21G28    29.71S
MANASSAS*      MOCLDY    57  46  67 NW10G21   29.69R
GAITHERSBURG*  PTCLDY    54  39  58 NW9       29.72R

$$

MDZ006>007-011-014-230600-
BALTIMORE METRO

CITY           SKY/WX    TMP DP  RH WIND       PRES   REMARKS
BWI AIRPORT    MOCLDY    56  45  66 NW13G20   29.66R
MD SCIENCE CTR   N/A     58  44  60 MISG      29.67R
MARTIN STATE   MOCLDY    57  46  67 W26       29.67R
ANNAPOLIS      PTCLDY    60  48  64 NW13      29.65R
FORT MEADE*    PTCLDY    55  43  62 NW15G23   29.69R

$$

MDZ012-015-019>023-230600-
MARYLAND EASTERN SHORE

CITY           SKY/WX    TMP DP  RH WIND       PRES   REMARKS
OCEAN CITY     MOCLDY    55  52  89 S3        29.62R
SALISBURY      LGT RAIN  61  55  81 W8        29.63R
CAMBRIDGE*     PTCLDY    55  52  88 CALM      29.63R
EASTON*        PTCLDY    56  55  98 CALM      29.67R

$$

MDZ017>025-230600-
SOUTHERN MARYLAND

CITY           SKY/WX    TMP DP  RH WIND       PRES   REMARKS
PATUXENT RIVER PTCLDY    57  52  83 NW7       29.64R
ST INIGOES     MOCLDY    56  52  86 CALM      29.63F
LEONARDTOWN*   MOCLDY    54  52  94 CALM      29.67R

$$

MDZ003>005-230600-
NORTH CENTRAL MARYLAND

CITY           SKY/WX    TMP DP  RH WIND       PRES   REMARKS
FREDERICK*     PTCLDY    52  39  62 N12G20    29.75R
HAGERSTOWN APT MOCLDY    48  35  60 NW12      29.73R
WESTMINSTER*   PTCLDY    52  39  62 NW15G23   29.70S

$$

MDZ501>502-230600-
WESTERN MARYLAND

CITY           SKY/WX    TMP DP  RH WIND       PRES   REMARKS
OAKLAND*       MOCLDY    37  32  81 NW10G17   29.76S
CUMBERLAND*    CLEAR     50  34  53 NW8G20    29.80S

$$

VAZ025>031-230600-
SHENANDOAH VALLEY

CITY           SKY/WX    TMP DP  RH WIND       PRES   REMARKS
WINCHESTER*    PTCLDY    52  37  58 NW7G16    29.74R
STAUNTON*      CLEAR     57  33  40 W6        29.73R

$$

WVZ021-048>050-054>055-230600-
EASTERN WEST VIRGINIA PANHANDLE

CITY           SKY/WX    TMP DP  RH WIND       PRES   REMARKS
MARTINSBURG    CLOUDY    52  36  54 NW10      29.74R
PETERSBURG*    CLOUDY    58  44  59 NW8G20    29.77R

$$

VAZ036>039-050-230600-
CENTRAL FOOTHILLS

CITY           SKY/WX    TMP DP  RH WIND       PRES   REMARKS
CHARLOTTESVILL PTCLDY    63  35  35 NW5       29.68R
CULPEPER*      MOCLDY    61  46  59 N10       29.70R

$$

VAZ055>057-230600-
NORTH AND CENTRAL PIEDMONT

CITY           SKY/WX    TMP DP  RH WIND       PRES   REMARKS
FREDERICKSBRG* CLEAR     61  50  65 N8        29.68R
STAFFORD*      MOCLDY    60  49  67 N8G18     29.72R

$$

NCZ024-NYZ072-PAZ021-071-VAZ022-071-230600-
OTHER REGIONAL OBSERVATIONS

CITY           SKY/WX    TMP DP  RH WIND       PRES   REMARKS
NEW YORK CITY  CLEAR     61  46  57 VRB7      29.53S
PHILADELPHIA   CLOUDY    60  40  47 W14G24    29.60S
PITTSBURGH     CLOUDY    46  35  65 NW22      29.82S
ROANOKE        PTCLDY    64  33  31 W18G26    29.76R
RICHMOND       MOCLDY    61  53  75 CALM      29.63S
RALEIGH        PTCLDY    61  54  77 W7        29.70F

$$

ANZ530>537-230600-
MARINE OBSERVATIONS

STATION/POSITION TIME  TEMP    WIND        PRES
                       AIR SEA DIR/SP/G
                 (UTC) (F)     (DEG/KT/KT) (MB)
THOMAS PT LIGHT  0500   60 54  320/ 23/ 30 1003.7S
BALT KEY BRIDGE  0500   60     300/ 16/ 19 1004.2R
COVE POINT       0500   59     340/  7/  8 1003.7S
LEWISETTA        0500   60 58   10/  7/ 12 1003.0S
SOLOMONS ISLAND  0500      56                N/A
PINEY POINT      0500           20/  5/  5   N/A

$$




USA.gov is the U.S. government's official web portal to all federal, state and local government web resources and services.